| time (UTC) | temp C | wind direction | speed KPH | gust KPH | rain 1hr cm | rain 24hr cm | rain mn cm | humidity % | barometer mb |
| 20260504100223 | -17 | 0.0 | 0.0 | 0.00 | 0.00 | 0.00 | 1010.4 | ||
| 20260504081616 | 6 | 106 | 22.5 | 24.1 | 0.00 | 0.00 | 0.00 | 65 | 1010.5 |
| 20260504081112 | 6 | 106 | 22.5 | 24.1 | 0.00 | 0.00 | 0.00 | 65 | 1010.6 |
| 20260504080609 | 6 | 106 | 22.5 | 24.1 | 0.00 | 0.00 | 0.00 | 65 | 1010.8 |
| 20260504080105 | 6 | 106 | 22.5 | 24.1 | 0.00 | 0.00 | 0.00 | 65 | 1010.3 |
| 20260504050421 | 5 | 102 | 17.7 | 32.2 | 0.00 | 0.00 | 0.00 | 73 | 1010.5 |
| 20260504045918 | 6 | 94 | 29.0 | 33.8 | 0.00 | 0.00 | 0.00 | 72 | 1010.4 |
| 20260504045414 | 6 | 96 | 22.5 | 33.8 | 0.00 | 0.00 | 0.00 | 70 | 1010.6 |
| 20260504044910 | 6 | 95 | 25.7 | 32.2 | 0.00 | 0.00 | 0.00 | 69 | 1010.4 |
| 20260504044408 | 6 | 94 | 29.0 | 35.4 | 0.00 | 0.00 | 0.00 | 69 | 1010.5 |
| 20260504043905 | 6 | 93 | 25.7 | 33.8 | 0.00 | 0.00 | 0.00 | 69 | 1010.5 |
| 20260504043402 | 6 | 89 | 25.7 | 33.8 | 0.00 | 0.00 | 0.00 | 69 | 1010.4 |
| 20260504042900 | 6 | 92 | 25.7 | 32.2 | 0.00 | 0.00 | 0.00 | 69 | 1010.4 |
| 20260504042355 | 6 | 90 | 25.7 | 35.4 | 0.00 | 0.00 | 0.00 | 70 | 1010.5 |
| 20260504041852 | 6 | 88 | 25.7 | 32.2 | 0.00 | 0.00 | 0.00 | 70 | 1010.5 |
| 20260504041348 | 6 | 89 | 27.4 | 32.2 | 0.00 | 0.00 | 0.00 | 70 | 1010.4 |
| 20260504040845 | 6 | 88 | 27.4 | 33.8 | 0.00 | 0.00 | 0.00 | 69 | 1010.4 |
| 20260504040342 | 6 | 91 | 22.5 | 30.6 | 0.00 | 0.00 | 0.00 | 69 | 1010.6 |
| 20260504035838 | 6 | 92 | 22.5 | 33.8 | 0.00 | 0.00 | 0.00 | 68 | 1010.5 |
| 20260504035336 | 6 | 91 | 24.1 | 32.2 | 0.00 | 0.00 | 0.00 | 70 | 1010.6 |
| 20260504034832 | 6 | 88 | 24.1 | 30.6 | 0.00 | 0.00 | 0.00 | 69 | 1010.8 |
| 20260504034330 | 7 | 95 | 24.1 | 32.2 | 0.00 | 0.00 | 0.00 | 68 | 1010.6 |
| 20260504033827 | 6 | 86 | 22.5 | 38.6 | 0.00 | 0.00 | 0.00 | 69 | 1010.5 |
| 20260504033325 | 6 | 90 | 24.1 | 30.6 | 0.00 | 0.00 | 0.00 | 69 | 1010.5 |
| 20260504032821 | 6 | 92 | 25.7 | 29.0 | 0.00 | 0.00 | 0.00 | 68 | 1010.9 |
| 20260504032319 | 7 | 94 | 20.9 | 32.2 | 0.00 | 0.00 | 0.00 | 67 | 1010.8 |
| 20260504031815 | 6 | 91 | 27.4 | 32.2 | 0.00 | 0.00 | 0.00 | 67 | 1010.8 |
| 20260504031313 | 6 | 94 | 17.7 | 33.8 | 0.00 | 0.00 | 0.00 | 68 | 1010.8 |
| 20260504030809 | 6 | 94 | 24.1 | 32.2 | 0.00 | 0.00 | 0.00 | 68 | 1010.8 |
| 20260504030306 | 6 | 89 | 25.7 | 33.8 | 0.00 | 0.00 | 0.00 | 67 | 1010.9 |
| 20260504025802 | 6 | 90 | 24.1 | 32.2 | 0.00 | 0.00 | 0.00 | 68 | 1010.6 |
| 20260504025259 | 6 | 90 | 24.1 | 32.2 | 0.00 | 0.00 | 0.00 | 68 | 1011.0 |
| 20260504024755 | 6 | 97 | 22.5 | 30.6 | 0.00 | 0.00 | 0.00 | 67 | 1010.8 |
| 20260504024252 | 6 | 98 | 22.5 | 30.6 | 0.00 | 0.00 | 0.00 | 67 | 1010.9 |
| 20260504023749 | 6 | 93 | 24.1 | 29.0 | 0.00 | 0.00 | 0.00 | 68 | 1010.8 |
| 20260504023246 | 5 | 92 | 29.0 | 30.6 | 0.00 | 0.00 | 0.00 | 71 | 1011.0 |
| 20260504022741 | 5 | 93 | 25.7 | 33.8 | 0.00 | 0.00 | 0.00 | 72 | 1011.0 |
| 20260504022238 | 5 | 91 | 27.4 | 35.4 | 0.00 | 0.00 | 0.00 | 72 | 1010.8 |
| 20260504021735 | 5 | 85 | 29.0 | 33.8 | 0.00 | 0.00 | 0.00 | 73 | 1011.0 |
| 20260504021232 | 5 | 90 | 25.7 | 32.2 | 0.00 | 0.00 | 0.00 | 71 | 1010.9 |
| 20260504020729 | 5 | 90 | 24.1 | 30.6 | 0.00 | 0.00 | 0.00 | 71 | 1010.8 |
| 20260504020226 | 5 | 89 | 25.7 | 32.2 | 0.00 | 0.00 | 0.00 | 71 | 1010.6 |
| 20260504015722 | 5 | 91 | 27.4 | 32.2 | 0.00 | 0.00 | 0.00 | 70 | 1010.9 |
| 20260504015218 | 5 | 96 | 29.0 | 37.0 | 0.00 | 0.00 | 0.00 | 70 | 1010.9 |
| 20260504014714 | 5 | 95 | 20.9 | 32.2 | 0.00 | 0.00 | 0.00 | 70 | 1010.9 |
| 20260504014211 | 5 | 97 | 22.5 | 32.2 | 0.00 | 0.00 | 0.00 | 69 | 1011.0 |
| 20260504013709 | 6 | 95 | 22.5 | 30.6 | 0.00 | 0.00 | 0.00 | 68 | 1010.9 |
| 20260504013206 | 5 | 88 | 25.7 | 35.4 | 0.00 | 0.00 | 0.00 | 68 | 1010.9 |
| 20260504012703 | 6 | 92 | 22.5 | 27.4 | 0.00 | 0.00 | 0.00 | 68 | 1010.5 |
| 20260504012201 | 6 | 89 | 25.7 | 27.4 | 0.00 | 0.00 | 0.00 | 68 | 1010.8 |
| 20260504011657 | 6 | 90 | 25.7 | 27.4 | 0.00 | 0.00 | 0.00 | 67 | 1010.5 |
| 20260504011154 | 6 | 92 | 25.7 | 27.4 | 0.00 | 0.00 | 0.00 | 67 | 1010.5 |
| 20260504010650 | 6 | 89 | 25.7 | 27.4 | 0.00 | 0.00 | 0.00 | 67 | 1010.5 |
| 20260504010145 | 6 | 92 | 25.7 | 27.4 | 0.00 | 0.00 | 0.00 | 66 | 1010.4 |
| 20260504005643 | 6 | 90 | 25.7 | 25.7 | 0.00 | 0.00 | 0.00 | 65 | 1010.5 |
| 20260504005139 | 6 | 92 | 25.7 | 27.4 | 0.00 | 0.00 | 0.00 | 65 | 1010.2 |
| 20260504004638 | 6 | 90 | 24.1 | 27.4 | 0.00 | 0.00 | 0.00 | 66 | 1010.3 |
| 20260504004134 | 6 | 92 | 22.5 | 27.4 | 0.00 | 0.00 | 0.00 | 65 | 1010.3 |
| 20260504003631 | 6 | 92 | 25.7 | 27.4 | 0.00 | 0.00 | 0.00 | 67 | 1010.1 |
| 20260504003127 | 6 | 93 | 25.7 | 27.4 | 0.00 | 0.00 | 0.00 | 66 | 1010.1 |
| 20260504002624 | 6 | 95 | 24.1 | 27.4 | 0.00 | 0.00 | 0.00 | 67 | 1010.0 |
| 20260504002122 | 6 | 91 | 25.7 | 27.4 | 0.00 | 0.00 | 0.00 | 67 | 1010.1 |
| 20260504001619 | 6 | 93 | 25.7 | 27.4 | 0.00 | 0.00 | 0.00 | 67 | 1009.9 |
| 20260504001115 | 6 | 93 | 25.7 | 27.4 | 0.00 | 0.00 | 0.00 | 67 | 1010.0 |
| 20260504000613 | 6 | 92 | 25.7 | 27.4 | 0.00 | 0.00 | 0.00 | 66 | 1010.2 |
| 20260504000110 | 6 | 94 | 25.7 | 27.4 | 0.00 | 0.00 | 0.00 | 65 | 1010.1 |
| 20260503235608 | 6 | 91 | 27.4 | 27.4 | 0.00 | 0.00 | 0.00 | 64 | 1009.9 |
| 20260503235105 | 6 | 88 | 24.1 | 27.4 | 0.00 | 0.00 | 0.00 | 64 | 1009.9 |
| 20260503234603 | 7 | 88 | 24.1 | 29.0 | 0.00 | 0.00 | 0.00 | 64 | 1009.9 |
| 20260503234100 | 7 | 92 | 20.9 | 27.4 | 0.00 | 0.00 | 0.00 | 62 | 1009.9 |
| 20260503233556 | 7 | 92 | 22.5 | 27.4 | 0.00 | 0.00 | 0.00 | 62 | 1009.9 |
| 20260503233052 | 7 | 92 | 24.1 | 29.0 | 0.00 | 0.00 | 0.00 | 61 | 1009.8 |
| 20260503232550 | 7 | 91 | 22.5 | 27.4 | 0.00 | 0.00 | 0.00 | 63 | 1009.9 |
| 20260503232047 | 7 | 96 | 24.1 | 32.2 | 0.00 | 0.00 | 0.00 | 62 | 1009.7 |
| 20260503231545 | 7 | 95 | 24.1 | 29.0 | 0.00 | 0.00 | 0.00 | 61 | 1009.8 |
| 20260503231041 | 8 | 95 | 20.9 | 27.4 | 0.00 | 0.00 | 0.00 | 61 | 1009.9 |
| 20260503230538 | 8 | 98 | 20.9 | 27.4 | 0.00 | 0.00 | 0.00 | 61 | 1009.9 |
| 20260503230036 | 8 | 85 | 20.9 | 29.0 | 0.00 | 0.00 | 0.00 | 62 | 1009.7 |
| 20260503225532 | 8 | 94 | 22.5 | 27.4 | 0.00 | 0.00 | 0.00 | 61 | 1009.8 |
| 20260503225027 | 8 | 92 | 22.5 | 27.4 | 0.00 | 0.00 | 0.00 | 62 | 1009.6 |
| 20260503224525 | 8 | 94 | 22.5 | 32.2 | 0.00 | 0.00 | 0.00 | 60 | 1009.8 |
| 20260503224023 | 8 | 100 | 22.5 | 33.8 | 0.00 | 0.00 | 0.00 | 60 | 1009.9 |
| 20260503223520 | 8 | 106 | 14.5 | 27.4 | 0.00 | 0.00 | 0.00 | 62 | 1009.9 |
| 20260503223016 | 8 | 101 | 20.9 | 30.6 | 0.00 | 0.00 | 0.00 | 61 | 1010.0 |
| 20260503222514 | 8 | 80 | 20.9 | 29.0 | 0.00 | 0.00 | 0.00 | 60 | 1010.0 |
| 20260503222012 | 8 | 96 | 20.9 | 33.8 | 0.00 | 0.00 | 0.00 | 59 | 1009.9 |
| 20260503221510 | 8 | 83 | 20.9 | 33.8 | 0.00 | 0.00 | 0.00 | 58 | 1009.8 |
| 20260503221007 | 8 | 79 | 20.9 | 27.4 | 0.00 | 0.00 | 0.00 | 58 | 1009.8 |
| 20260503220503 | 8 | 89 | 24.1 | 32.2 | 0.00 | 0.00 | 0.00 | 58 | 1009.7 |
| 20260503220000 | 8 | 94 | 20.9 | 35.4 | 0.00 | 0.00 | 0.00 | 56 | 1009.7 |
| 20260503215457 | 8 | 86 | 14.5 | 32.2 | 0.00 | 0.00 | 0.00 | 55 | 1009.6 |
| 20260503214954 | 8 | 96 | 22.5 | 30.6 | 0.00 | 0.00 | 0.00 | 54 | 1009.7 |
| 20260503214452 | 9 | 91 | 25.7 | 32.2 | 0.00 | 0.00 | 0.00 | 54 | 1009.6 |
| 20260503213949 | 9 | 90 | 12.9 | 30.6 | 0.00 | 0.00 | 0.00 | 53 | 1009.6 |
| 20260503213447 | 8 | 80 | 22.5 | 29.0 | 0.00 | 0.00 | 0.00 | 53 | 1009.2 |
| 20260503212943 | 9 | 68 | 29.0 | 33.8 | 0.00 | 0.00 | 0.00 | 52 | 1009.4 |
| 20260503212441 | 9 | 92 | 20.9 | 37.0 | 0.00 | 0.00 | 0.00 | 52 | 1009.3 |
| 20260503211938 | 9 | 46 | 20.9 | 32.2 | 0.00 | 0.00 | 0.00 | 51 | 1009.4 |
| 20260503211435 | 9 | 108 | 22.5 | 30.6 | 0.00 | 0.00 | 0.00 | 51 | 1009.3 |
| 20260503210930 | 10 | 110 | 14.5 | 30.6 | 0.00 | 0.00 | 0.00 | 49 | 1009.4 |
| 20260503210427 | 10 | 96 | 17.7 | 25.7 | 0.00 | 0.00 | 0.00 | 50 | 1009.3 |
| 20260503205922 | 10 | 97 | 17.7 | 30.6 | 0.00 | 0.00 | 0.00 | 48 | 1009.2 |
| 20260503205420 | 10 | 103 | 22.5 | 32.2 | 0.00 | 0.00 | 0.00 | 49 | 1009.2 |
| 20260503204916 | 10 | 77 | 17.7 | 27.4 | 0.00 | 0.00 | 0.00 | 49 | 1009.1 |
| 20260503204413 | 10 | 111 | 16.1 | 33.8 | 0.00 | 0.00 | 0.00 | 46 | 1009.2 |
| 20260503203910 | 10 | 97 | 20.9 | 27.4 | 0.00 | 0.00 | 0.00 | 48 | 1009.2 |
| 20260503203408 | 10 | 101 | 19.3 | 35.4 | 0.00 | 0.00 | 0.00 | 47 | 1008.8 |
| 20260503202904 | 10 | 71 | 24.1 | 29.0 | 0.00 | 0.00 | 0.00 | 46 | 1009.2 |
| 20260503202403 | 10 | 68 | 25.7 | 27.4 | 0.00 | 0.00 | 0.00 | 44 | 1008.8 |
| 20260503201901 | 10 | 97 | 20.9 | 35.4 | 0.00 | 0.00 | 0.00 | 43 | 1009.3 |
| 20260503201357 | 11 | 95 | 25.7 | 32.2 | 0.00 | 0.00 | 0.00 | 43 | 1009.2 |
| 20260503200855 | 10 | 82 | 20.9 | 32.2 | 0.00 | 0.00 | 0.00 | 43 | 1009.5 |
| 20260503200350 | 11 | 100 | 17.7 | 35.4 | 0.00 | 0.00 | 0.00 | 41 | 1009.0 |
| 20260503195848 | 10 | 78 | 17.7 | 32.2 | 0.00 | 0.00 | 0.00 | 42 | 1009.2 |
| 20260503195344 | 11 | 72 | 24.1 | 33.8 | 0.00 | 0.00 | 0.00 | 41 | 1009.4 |
| 20260503194842 | 11 | 93 | 22.5 | 33.8 | 0.00 | 0.00 | 0.00 | 41 | 1009.4 |
| 20260503194337 | 11 | 102 | 17.7 | 35.4 | 0.00 | 0.00 | 0.00 | 40 | 1009.2 |
| 20260503193834 | 11 | 98 | 24.1 | 29.0 | 0.00 | 0.00 | 0.00 | 44 | 1009.6 |
| 20260503193330 | 11 | 80 | 22.5 | 33.8 | 0.00 | 0.00 | 0.00 | 40 | 1009.9 |
| 20260503192826 | 10 | 90 | 19.3 | 27.4 | 0.00 | 0.00 | 0.00 | 42 | 1009.6 |
| 20260503192321 | 10 | 106 | 24.1 | 27.4 | 0.00 | 0.00 | 0.00 | 43 | 1009.7 |
| 20260503191818 | 11 | 107 | 17.7 | 29.0 | 0.00 | 0.00 | 0.00 | 42 | 1010.0 |
| 20260503191315 | 10 | 103 | 19.3 | 33.8 | 0.00 | 0.00 | 0.00 | 44 | 1009.9 |
| 20260503190812 | 10 | 115 | 17.7 | 27.4 | 0.00 | 0.00 | 0.00 | 44 | 1010.1 |
| 20260503190309 | 10 | 98 | 16.1 | 30.6 | 0.00 | 0.00 | 0.00 | 45 | 1010.0 |
| 20260503185806 | 9 | 95 | 20.9 | 32.2 | 0.00 | 0.00 | 0.00 | 42 | 1009.8 |
| 20260503185304 | 9 | 78 | 20.9 | 33.8 | 0.00 | 0.00 | 0.00 | 44 | 1009.9 |
| 20260503184801 | 10 | 81 | 20.9 | 27.4 | 0.00 | 0.00 | 0.00 | 44 | 1010.1 |
| 20260503184258 | 10 | 86 | 17.7 | 29.0 | 0.00 | 0.00 | 0.00 | 44 | 1010.2 |
| 20260503183754 | 9 | 85 | 19.3 | 29.0 | 0.00 | 0.00 | 0.00 | 45 | 1010.0 |
| 20260503183252 | 10 | 82 | 24.1 | 33.8 | 0.00 | 0.00 | 0.00 | 43 | 1010.1 |
| 20260503182749 | 10 | 82 | 17.7 | 27.4 | 0.00 | 0.00 | 0.00 | 44 | 1010.3 |
| 20260503182248 | 8 | 53 | 19.3 | 27.4 | 0.00 | 0.00 | 0.00 | 44 | 1010.3 |
| 20260503181744 | 9 | 93 | 20.9 | 35.4 | 0.00 | 0.00 | 0.00 | 45 | 1010.3 |
| 20260503181241 | 10 | 93 | 20.9 | 27.4 | 0.00 | 0.00 | 0.00 | 46 | 1010.3 |
| 20260503180738 | 10 | 74 | 22.5 | 29.0 | 0.00 | 0.00 | 0.00 | 46 | 1010.3 |
| 20260503180236 | 10 | 123 | 17.7 | 30.6 | 0.00 | 0.00 | 0.00 | 42 | 1010.2 |
| 20260503175732 | 10 | 93 | 14.5 | 29.0 | 0.00 | 0.00 | 0.00 | 47 | 1010.4 |
| 20260503175231 | 9 | 116 | 16.1 | 32.2 | 0.00 | 0.00 | 0.00 | 48 | 1010.3 |
| 20260503174726 | 10 | 98 | 16.1 | 29.0 | 0.00 | 0.00 | 0.00 | 48 | 1010.3 |
| 20260503174224 | 10 | 82 | 17.7 | 32.2 | 0.00 | 0.00 | 0.00 | 47 | 1010.5 |
| 20260503173719 | 8 | 65 | 29.0 | 32.2 | 0.00 | 0.00 | 0.00 | 48 | 1010.5 |
| 20260503173215 | 8 | 93 | 17.7 | 33.8 | 0.00 | 0.00 | 0.00 | 46 | 1010.8 |
| 20260503172712 | 8 | 95 | 20.9 | 35.4 | 0.00 | 0.00 | 0.00 | 48 | 1010.6 |
| 20260503172209 | 7 | 109 | 24.1 | 29.0 | 0.00 | 0.00 | 0.00 | 52 | 1010.6 |
| 20260503171706 | 7 | 102 | 17.7 | 29.0 | 0.00 | 0.00 | 0.00 | 52 | 1010.8 |
| 20260503171203 | 6 | 100 | 22.5 | 32.2 | 0.00 | 0.00 | 0.00 | 52 | 1011.0 |
| 20260503170700 | 7 | 99 | 24.1 | 30.6 | 0.00 | 0.00 | 0.00 | 51 | 1011.2 |
| 20260503170157 | 6 | 94 | 19.3 | 29.0 | 0.00 | 0.00 | 0.00 | 50 | 1010.8 |
| 20260503160118 | 5 | 90 | 19.3 | 35.4 | 0.00 | 0.00 | 0.00 | 57 | 1011.3 |
| 20260503150548 | 3 | 70 | 20.9 | 33.8 | 0.00 | 0.00 | 0.00 | 62 | 1011.2 |
| 20260503130938 | 3 | 97 | 20.9 | 35.4 | 0.00 | 0.00 | 0.00 | 71 | 1011.6 |
| 20260503130436 | 3 | 93 | 19.3 | 32.2 | 0.00 | 0.00 | 0.00 | 73 | 1011.3 |
| 20260503110326 | -17 | 0.0 | 0.0 | 0.00 | 0.00 | 0.00 | 1011.0 |